Bedford, United Kingdom
Current Conditions -  °F | °C
As of 4:20 PM on Thursday 27 Nov 2014 (Local Time) from EGTC Reporting Station
Few Clouds Few Clouds  
Wind Chill: 44°   Ceiling: Unl
Heat Index: 46°   Visibility: 6mi
Dew Point: 45°   Wind: 5mph
Humidity: 93%   Direction: 110°ESE
Pressure: 29.56"   Gusts: NA
Location:  52.14°N, 0.47°W
Report Text: EGTC 271620Z 11004KT 9999 FEW045 08/07 Q1001
Loading
Personal Weather Stations






























Interactive Weather Map New forecast layout! Learn more

10-Day Weather Forecast

Advertisements
Track Severe Weather on mobile